Weather History for Hattiesburg, MS

Change the Weather History Date:

Sunday, January 6, 2008

  Actual Average Record
Temperature  
Mean Temperature 63 °F 49 °F  
Max Temperature 76 °F 60 °F 77 °F (2009)
Min Temperature 49 °F 38 °F 15 °F (1999)
Degree Days  
Heating Degree Days 2 16  
Month to date heating degree days 122 96  
Since 1 July heating degree days 692 881  
Cooling Degree Days 0 0  
Month to date cooling degree days 0 0  
Year to date cooling degree days 0 0  
Growing Degree Days 10 (Base 50)    
Moisture  
Dew Point 56 °F    
Average Humidity 82    
Maximum Humidity 100    
Minimum Humidity 64    
Precipitation  
Precipitation 0.00 in 0.19 in 1.59 in (1970)
Month to date precipitation 0.00 1.13  
Year to date precipitation 0.00 1.13  
Sea Level Pressure  
Sea Level Pressure 30.21 in    
Wind  
Wind Speed 7 mph (SSE)    
Max Wind Speed 20 mph    
Max Gust Speed 24 mph    
Visibility 6 miles    
Events Fog    
T = Trace of Precipitation, MM = Missing Value Source: NWS Daily Summary

Daily Weather History Graph

Daily Weather History Graph

Search for Another Location

Airport:

Trip Planner

Search our weather history database for the weather conditions in past years. The results will help you decide how hot, cold, wet, or windy it might be!

Date:

Astronomy

Jan. 06, 2008 Rise Set
Actual Time 6:56 AM CST 5:08 PM CST
Civil Twilight 6:30 AM CST 5:35 PM CST
Nautical Twilight 6:00 AM CST 6:05 PM CST
Astronomical Twilight 5:30 AM CST 6:35 PM CST
Moon 5:38 AM CST (1/6) 3:27 PM CST (1/6)
Length of Visible Light 11h 05m
Length of Day
10h 12m
Waning Crescent, 3% of the Moon is Illuminated
Jan 6
Waning Crescent
Jan 8
New
Jan 15
First Quarter
Jan 22
Full
Jan 29
Last Quarter

Hourly Weather History & Observations

Time (CST) Temp. Dew Point Humidity Pressure Visibility Wind Dir Wind Speed Gust Speed Precip Events Conditions
12:09 AM 51.8 °F 48.2 °F 88% 30.21 in 5.0 mi South 6.9 mph - N/A   Scattered Clouds
12:53 AM 57.9 °F 55.9 °F 93% 30.21 in 9.0 mi South 8.1 mph - N/A   Clear
1:53 AM 57.9 °F 55.9 °F 93% 30.21 in 10.0 mi South 8.1 mph - N/A   Clear
2:53 AM 57.9 °F 55.9 °F 93% 30.21 in 10.0 mi South 6.9 mph - N/A   Clear
3:53 AM 57.0 °F 55.9 °F 96% 30.20 in 9.0 mi South 4.6 mph - N/A   Clear
4:21 AM 55.4 °F 55.4 °F 100% 30.21 in 1.5 mi Calm Calm - N/A   Partly Cloudy
4:26 AM 55.4 °F 53.6 °F 94% 30.21 in 0.5 mi Calm Calm - N/A Fog Fog
4:31 AM 53.6 °F 53.6 °F 100% 30.21 in 0.2 mi Calm Calm - N/A Fog Fog
4:53 AM 51.1 °F 50.0 °F 96% 30.21 in 0.2 mi Calm Calm - N/A Fog Fog
5:25 AM 51.8 °F 50.0 °F 94% 30.22 in 0.2 mi Calm Calm - N/A Fog Fog
5:44 AM 50.0 °F 50.0 °F 100% 30.22 in 0.2 mi SE 3.5 mph - N/A Fog Fog
5:53 AM 50.0 °F 48.9 °F 96% 30.22 in 0.5 mi SE 3.5 mph - N/A Fog Fog
6:17 AM 48.2 °F 48.2 °F 100% 30.22 in 0.2 mi Calm Calm - N/A Fog Fog
6:53 AM 50.0 °F 48.9 °F 96% 30.23 in 0.2 mi SSE 3.5 mph - N/A Fog Fog
7:53 AM 52.0 °F 51.1 °F 97% 30.25 in 0.2 mi Calm Calm - N/A Fog Fog
8:41 AM 55.4 °F 53.6 °F 94% 30.25 in 0.5 mi Calm Calm - N/A Fog Fog
8:49 AM 55.4 °F 55.4 °F 100% 30.25 in 2.0 mi Calm Calm - N/A   Mostly Cloudy
8:50 AM 55.9 °F 55.0 °F 97% 30.25 in 2.5 mi Calm Calm - N/A   Mostly Cloudy
8:53 AM 57.2 °F 55.4 °F 94% 30.25 in 3.0 mi Calm Calm - N/A   Mostly Cloudy
9:05 AM 57.2 °F 55.4 °F 94% 30.26 in 7.0 mi Calm Calm - N/A   Partly Cloudy
9:53 AM 68.0 °F 60.1 °F 76% 30.26 in 10.0 mi South 9.2 mph - N/A   Mostly Cloudy
11:15 AM 71.6 °F 60.8 °F 69% 30.25 in 10.0 mi SSE 13.8 mph - N/A   Overcast
11:53 AM 73.0 °F 60.1 °F 64% 30.23 in 10.0 mi South 15.0 mph - N/A   Overcast
12:07 PM 73.4 °F 60.8 °F 65% 30.22 in 10.0 mi South 15.0 mph - N/A   Overcast
12:53 PM 73.9 °F 60.1 °F 62% 30.19 in 10.0 mi South 13.8 mph 19.6 mph N/A   Mostly Cloudy
1:53 PM 73.9 °F 60.1 °F 62% 30.17 in 10.0 mi SSE 13.8 mph - N/A   Overcast
2:53 PM 73.0 °F 60.1 °F 64% 30.17 in 10.0 mi South 11.5 mph 19.6 mph N/A   Mostly Cloudy
3:53 PM 72.0 °F 59.0 °F 64% 30.17 in 10.0 mi SSE 11.5 mph - N/A   Mostly Cloudy
4:53 PM 70.0 °F 59.0 °F 68% 30.17 in 10.0 mi South 6.9 mph - N/A   Clear
5:53 PM 64.9 °F 57.9 °F 78% 30.19 in 10.0 mi South 4.6 mph - N/A   Clear
6:53 PM 63.0 °F 57.9 °F 84% 30.20 in 10.0 mi SSE 4.6 mph - N/A   Overcast
7:53 PM 64.0 °F 59.0 °F 84% 30.21 in 10.0 mi Calm Calm - N/A   Overcast
8:53 PM 62.1 °F 57.9 °F 86% 30.20 in 10.0 mi SE 8.1 mph - N/A   Clear
9:53 PM 63.0 °F 59.0 °F 87% 30.19 in 10.0 mi SSE 11.5 mph - N/A   Clear
10:53 PM 63.0 °F 59.0 °F 87% 30.19 in 10.0 mi South 10.4 mph - N/A   Clear
11:53 PM 62.1 °F 57.9 °F 86% 30.19 in 10.0 mi South 5.8 mph - N/A   Clear